STARLINK-1046 (44751 NORAD) Tracking and Keplerian Element Data

This shows tracking and keplerian element data for the satellite.

Feedback or suggestion? Click here.




ElementValue
Catalog44751
NameSTARLINK-1046
Epoch Orbit2185
Epoch Day94.25001157
Epoch Year2020
RAAN232.1431
Inclination53.0005
Eccentricity0.0001303
Argument of Perigee103.8306
Mean Anonmoly124.5963
Mean Motion15.05546753
Decay Rate0.00040202
L11 44751U 19074AQ 20094.25001157 .00040202 00000-0 27651-2 0 9999
L22 44751 53.0005 232.1431 0001303 103.8306 124.5963 15.05546753 21857

Live tracking and technical data element details for STARLINK-1046 (NORAD 44751). STARLINK-1046 can be tracked NOW for your location showing map with azimuth and elevation plus other details from your city location.

Track the satellite on the map from your city or location and see movement details for azimuth, elevation, latitude, longitude, range, height, and movement on the map or in text.







IsCatalogInMostPopularTable: catalog: 44751, numindb: 53
Update: records affected: 1



GetName: 44751 STARLINK-1046

Hit Count: updated at: Fri, 10 Apr 2020 19:30:44 GMT